Year,Month,Day,Hour,Minute,Value (Times are PST for temperature in C)
2017,07,18,00,00,14.20
2017,07,18,00,01,14.20
2017,07,18,00,02,14.20
2017,07,18,00,03,14.20
2017,07,18,00,04,14.20
2017,07,18,00,05,14.20
2017,07,18,00,06,14.20
2017,07,18,00,07,14.10
2017,07,18,00,08,14.10
2017,07,18,00,09,14.10
2017,07,18,00,10,14.10
2017,07,18,00,11,14.10
2017,07,18,00,12,14.10
2017,07,18,00,13,14.10
2017,07,18,00,14,14.10
2017,07,18,00,15,14.10
2017,07,18,00,16,14.10
2017,07,18,00,17,14.10
2017,07,18,00,18,14.00
2017,07,18,00,19,14.00
2017,07,18,00,20,14.00
2017,07,18,00,21,14.00
2017,07,18,00,22,14.00
2017,07,18,00,23,13.90
2017,07,18,00,24,13.90
2017,07,18,00,25,13.90
2017,07,18,00,26,13.90
2017,07,18,00,27,13.90
2017,07,18,00,28,13.90
2017,07,18,00,29,13.90
2017,07,18,00,30,13.80
2017,07,18,00,31,13.80
2017,07,18,00,32,13.80
2017,07,18,00,33,13.80
2017,07,18,00,34,13.80
2017,07,18,00,35,13.80
2017,07,18,00,36,13.80
2017,07,18,00,37,13.70
2017,07,18,00,38,13.70
2017,07,18,00,39,13.70
2017,07,18,00,40,13.70
2017,07,18,00,41,13.70
2017,07,18,00,42,13.70
2017,07,18,00,43,13.70
2017,07,18,00,44,13.70
2017,07,18,00,45,13.60
2017,07,18,00,46,13.60
2017,07,18,00,47,13.60
2017,07,18,00,48,13.60
2017,07,18,00,49,13.60
2017,07,18,00,50,13.60
2017,07,18,00,51,13.60
2017,07,18,00,52,13.60
2017,07,18,00,53,13.60
2017,07,18,00,54,13.60
2017,07,18,00,55,13.60
2017,07,18,00,56,13.50
2017,07,18,00,57,13.50
2017,07,18,00,58,13.50
2017,07,18,00,59,13.50
2017,07,18,01,00,13.50
2017,07,18,01,01,13.50
2017,07,18,01,02,13.50
2017,07,18,01,03,13.50
2017,07,18,01,04,13.50
2017,07,18,01,05,13.50
2017,07,18,01,06,13.40
2017,07,18,01,07,13.40
2017,07,18,01,08,13.40
2017,07,18,01,09,13.40
2017,07,18,01,10,13.40
2017,07,18,01,11,13.40
2017,07,18,01,12,13.40
2017,07,18,01,13,13.40
2017,07,18,01,14,13.40
2017,07,18,01,15,13.30
2017,07,18,01,16,13.30
2017,07,18,01,17,13.30
2017,07,18,01,18,13.30
2017,07,18,01,19,13.30
2017,07,18,01,20,13.30
2017,07,18,01,21,13.30
2017,07,18,01,22,13.20
2017,07,18,01,23,13.20
2017,07,18,01,24,13.20
2017,07,18,01,25,13.20
2017,07,18,01,26,13.20
2017,07,18,01,27,13.20
2017,07,18,01,28,13.20
2017,07,18,01,29,13.20
2017,07,18,01,30,13.10
2017,07,18,01,31,13.10
2017,07,18,01,32,13.10
2017,07,18,01,33,13.10
2017,07,18,01,34,13.00
2017,07,18,01,35,13.00
2017,07,18,01,36,13.00
2017,07,18,01,37,13.00
2017,07,18,01,38,12.90
2017,07,18,01,39,12.90
2017,07,18,01,40,12.90
2017,07,18,01,41,12.90
2017,07,18,01,42,12.90
2017,07,18,01,43,12.80
2017,07,18,01,44,12.80
2017,07,18,01,45,12.80
2017,07,18,01,46,12.80
2017,07,18,01,47,12.80
2017,07,18,01,48,12.80
2017,07,18,01,49,12.80
2017,07,18,01,50,12.70
2017,07,18,01,51,12.70
2017,07,18,01,52,12.70
2017,07,18,01,53,12.70
2017,07,18,01,54,12.70
2017,07,18,01,55,12.70
2017,07,18,01,56,12.70
2017,07,18,01,57,12.60
2017,07,18,01,58,12.60
2017,07,18,01,59,12.60
2017,07,18,02,00,12.60
2017,07,18,02,01,12.60
2017,07,18,02,02,12.60
2017,07,18,02,03,12.60
2017,07,18,02,04,12.50
2017,07,18,02,05,12.50
2017,07,18,02,06,12.50
2017,07,18,02,07,12.50
2017,07,18,02,08,12.50
2017,07,18,02,09,12.50
2017,07,18,02,10,12.50
2017,07,18,02,11,12.40
2017,07,18,02,12,12.40
2017,07,18,02,13,12.40
2017,07,18,02,14,12.40
2017,07,18,02,15,12.40
2017,07,18,02,16,12.40
2017,07,18,02,17,12.40
2017,07,18,02,18,12.40
2017,07,18,02,19,12.40
2017,07,18,02,20,12.30
2017,07,18,02,21,12.30
2017,07,18,02,22,12.30
2017,07,18,02,23,12.30
2017,07,18,02,24,12.30
2017,07,18,02,25,12.30
2017,07,18,02,26,12.30
2017,07,18,02,27,12.30
2017,07,18,02,28,12.20
2017,07,18,02,29,12.20
2017,07,18,02,30,12.20
2017,07,18,02,31,12.20
2017,07,18,02,32,12.20
2017,07,18,02,33,12.20
2017,07,18,02,34,12.20
2017,07,18,02,35,12.20
2017,07,18,02,36,12.10
2017,07,18,02,37,12.10
2017,07,18,02,38,12.10
2017,07,18,02,39,12.10
2017,07,18,02,40,12.10
2017,07,18,02,41,12.10
2017,07,18,02,42,12.10
2017,07,18,02,43,12.10
2017,07,18,02,44,12.10
2017,07,18,02,45,12.10
2017,07,18,02,46,12.10
2017,07,18,02,47,12.10
2017,07,18,02,48,12.10
2017,07,18,02,49,12.10
2017,07,18,02,50,12.00
2017,07,18,02,51,12.00
2017,07,18,02,52,12.00
2017,07,18,02,53,12.00
2017,07,18,02,54,12.00
2017,07,18,02,55,12.00
2017,07,18,02,56,11.90
2017,07,18,02,57,11.90
2017,07,18,02,58,11.90
2017,07,18,02,59,11.90
2017,07,18,03,00,11.90
2017,07,18,03,01,11.90
2017,07,18,03,02,11.90
2017,07,18,03,03,11.90
2017,07,18,03,04,11.90
2017,07,18,03,05,11.90
2017,07,18,03,06,11.80
2017,07,18,03,07,11.80
2017,07,18,03,08,11.80
2017,07,18,03,09,11.80
2017,07,18,03,10,11.80
2017,07,18,03,11,11.80
2017,07,18,03,12,11.80
2017,07,18,03,13,11.80
2017,07,18,03,14,11.80
2017,07,18,03,15,11.80
2017,07,18,03,16,11.80
2017,07,18,03,17,11.80
2017,07,18,03,18,11.70
2017,07,18,03,19,11.70
2017,07,18,03,20,11.70
2017,07,18,03,21,11.70
2017,07,18,03,22,11.70
2017,07,18,03,23,11.70
2017,07,18,03,24,11.70
2017,07,18,03,25,11.70
2017,07,18,03,26,11.70
2017,07,18,03,27,11.70
2017,07,18,03,28,11.60
2017,07,18,03,29,11.60
2017,07,18,03,30,11.60
2017,07,18,03,31,11.60
2017,07,18,03,32,11.60
2017,07,18,03,33,11.60
2017,07,18,03,34,11.60
2017,07,18,03,35,11.60
2017,07,18,03,36,11.60
2017,07,18,03,37,11.50
2017,07,18,03,38,11.50
2017,07,18,03,39,11.50
2017,07,18,03,40,11.50
2017,07,18,03,41,11.40
2017,07,18,03,42,11.40
2017,07,18,03,43,11.40
2017,07,18,03,44,11.40
2017,07,18,03,45,11.40
2017,07,18,03,46,11.40
2017,07,18,03,47,11.40
2017,07,18,03,48,11.40
2017,07,18,03,49,11.40
2017,07,18,03,50,11.40
2017,07,18,03,51,11.30
2017,07,18,03,52,11.30
2017,07,18,03,53,11.30
2017,07,18,03,54,11.30
2017,07,18,03,55,11.30
2017,07,18,03,56,11.30
2017,07,18,03,57,11.30
2017,07,18,03,58,11.30
2017,07,18,03,59,11.30
2017,07,18,04,00,11.30
2017,07,18,04,01,11.30
2017,07,18,04,02,11.30
2017,07,18,04,03,11.30
2017,07,18,04,04,11.30
2017,07,18,04,05,11.30
2017,07,18,04,06,11.20
2017,07,18,04,07,11.20
2017,07,18,04,08,11.20
2017,07,18,04,09,11.20
2017,07,18,04,10,11.20
2017,07,18,04,11,11.20
2017,07,18,04,12,11.20
2017,07,18,04,13,11.20
2017,07,18,04,14,11.20
2017,07,18,04,15,11.20
2017,07,18,04,16,11.10
2017,07,18,04,17,11.10
2017,07,18,04,18,11.10
2017,07,18,04,19,11.10
2017,07,18,04,20,11.10
2017,07,18,04,21,11.10
2017,07,18,04,22,11.10
2017,07,18,04,23,11.10
2017,07,18,04,24,11.10
2017,07,18,04,25,11.10
2017,07,18,04,26,11.10
2017,07,18,04,27,11.10
2017,07,18,04,28,11.10
2017,07,18,04,29,11.10
2017,07,18,04,30,11.00
2017,07,18,04,31,11.00
2017,07,18,04,32,11.00
2017,07,18,04,33,11.00
2017,07,18,04,34,11.00
2017,07,18,04,35,11.00
2017,07,18,04,36,11.00
2017,07,18,04,37,11.00
2017,07,18,04,38,11.00
2017,07,18,04,39,11.00
2017,07,18,04,40,11.00
2017,07,18,04,41,11.00
2017,07,18,04,42,11.00
2017,07,18,04,43,11.00
2017,07,18,04,44,11.00
2017,07,18,04,45,11.00
2017,07,18,04,46,11.00
2017,07,18,04,47,11.00
2017,07,18,04,48,11.00
2017,07,18,04,49,11.00
2017,07,18,04,50,11.00
2017,07,18,04,51,11.00
2017,07,18,04,52,10.90
2017,07,18,04,53,10.90
2017,07,18,04,54,10.90
2017,07,18,04,55,10.90
2017,07,18,04,56,10.90
2017,07,18,04,57,10.90
2017,07,18,04,58,10.90
2017,07,18,04,59,10.90
2017,07,18,05,00,10.90
2017,07,18,05,01,10.90
2017,07,18,05,02,10.90
2017,07,18,05,03,10.90
2017,07,18,05,04,10.90
2017,07,18,05,05,10.80
2017,07,18,05,06,10.80
2017,07,18,05,07,10.80
2017,07,18,05,08,10.80
2017,07,18,05,09,10.80
2017,07,18,05,10,10.80
2017,07,18,05,11,10.80
2017,07,18,05,12,10.80
2017,07,18,05,13,10.80
2017,07,18,05,14,10.80
2017,07,18,05,15,10.80
2017,07,18,05,16,10.80
2017,07,18,05,17,10.80
2017,07,18,05,18,10.70
2017,07,18,05,19,10.70
2017,07,18,05,20,10.70
2017,07,18,05,21,10.70
2017,07,18,05,22,10.70
2017,07,18,05,23,10.70
2017,07,18,05,24,10.70
2017,07,18,05,25,10.70
2017,07,18,05,26,10.70
2017,07,18,05,27,10.70
2017,07,18,05,28,10.70
2017,07,18,05,29,10.70
2017,07,18,05,30,10.70
2017,07,18,05,31,10.70
2017,07,18,05,32,10.70
2017,07,18,05,33,10.70
2017,07,18,05,34,10.70
2017,07,18,05,35,10.70
2017,07,18,05,36,10.70
2017,07,18,05,37,10.70
2017,07,18,05,38,10.70
2017,07,18,05,39,10.70
2017,07,18,05,40,10.70
2017,07,18,05,41,10.70
2017,07,18,05,42,10.70
2017,07,18,05,43,10.70
2017,07,18,05,44,10.70
2017,07,18,05,45,10.70
2017,07,18,05,46,10.70
2017,07,18,05,47,10.70
2017,07,18,05,48,10.70
2017,07,18,05,49,10.70
2017,07,18,05,50,10.70
2017,07,18,05,51,10.70
2017,07,18,05,52,10.70
2017,07,18,05,53,10.70
2017,07,18,05,54,10.70
2017,07,18,05,55,10.70
2017,07,18,05,56,10.60
2017,07,18,05,57,10.60
2017,07,18,05,58,10.60
2017,07,18,05,59,10.60
2017,07,18,06,00,10.60
2017,07,18,06,01,10.60
2017,07,18,06,02,10.60
2017,07,18,06,03,10.60
2017,07,18,06,04,10.60
2017,07,18,06,05,10.60
2017,07,18,06,06,10.60
2017,07,18,06,07,10.60
2017,07,18,06,08,10.60
2017,07,18,06,09,10.60
2017,07,18,06,10,10.60
2017,07,18,06,11,10.60
2017,07,18,06,12,10.60
2017,07,18,06,13,10.60
2017,07,18,06,14,10.60
2017,07,18,06,15,10.60
2017,07,18,06,16,10.60
2017,07,18,06,17,10.60
2017,07,18,06,18,10.60
2017,07,18,06,19,10.60
2017,07,18,06,20,10.60
2017,07,18,06,21,10.60
2017,07,18,06,22,10.60
2017,07,18,06,23,10.60
2017,07,18,06,24,10.60
2017,07,18,06,25,10.70
2017,07,18,06,26,10.70
2017,07,18,06,27,10.70
2017,07,18,06,28,10.70
2017,07,18,06,29,10.70
2017,07,18,06,30,10.70
2017,07,18,06,31,10.70
2017,07,18,06,32,10.70
2017,07,18,06,33,10.70
2017,07,18,06,34,10.70
2017,07,18,06,35,10.70
2017,07,18,06,36,10.70
2017,07,18,06,37,10.70
2017,07,18,06,38,10.80
2017,07,18,06,39,10.80
2017,07,18,06,40,10.80
2017,07,18,06,41,10.80
2017,07,18,06,42,10.80
2017,07,18,06,43,10.80
2017,07,18,06,44,10.80
2017,07,18,06,45,10.80
2017,07,18,06,46,10.80
2017,07,18,06,47,10.80
2017,07,18,06,48,10.90
2017,07,18,06,49,10.90
2017,07,18,06,50,11.00
2017,07,18,06,51,11.00
2017,07,18,06,52,11.10
2017,07,18,06,53,11.20
2017,07,18,06,54,11.20
2017,07,18,06,55,11.30
2017,07,18,06,56,11.30
2017,07,18,06,57,11.40
2017,07,18,06,58,11.40
2017,07,18,06,59,11.50
2017,07,18,07,00,11.50
2017,07,18,07,01,11.60
2017,07,18,07,02,11.70
2017,07,18,07,03,11.70
2017,07,18,07,04,11.80
2017,07,18,07,05,11.90
2017,07,18,07,06,11.90
2017,07,18,07,07,12.00
2017,07,18,07,08,12.00
2017,07,18,07,09,12.10
2017,07,18,07,10,12.20
2017,07,18,07,11,12.20
2017,07,18,07,12,12.20
2017,07,18,07,13,12.30
2017,07,18,07,14,12.30
2017,07,18,07,15,12.30
2017,07,18,07,16,12.40
2017,07,18,07,17,12.40
2017,07,18,07,18,12.50
2017,07,18,07,19,12.60
2017,07,18,07,20,12.60
2017,07,18,07,21,12.60
2017,07,18,07,22,12.70
2017,07,18,07,23,12.70
2017,07,18,07,24,12.70
2017,07,18,07,25,12.80
2017,07,18,07,26,12.80
2017,07,18,07,27,12.80
2017,07,18,07,28,12.90
2017,07,18,07,29,12.90
2017,07,18,07,30,13.00
2017,07,18,07,31,13.00
2017,07,18,07,32,13.10
2017,07,18,07,33,13.10
2017,07,18,07,34,13.20
2017,07,18,07,35,13.20
2017,07,18,07,36,13.30
2017,07,18,07,37,13.30
2017,07,18,07,38,13.40
2017,07,18,07,39,13.40
2017,07,18,07,40,13.50
2017,07,18,07,41,13.60
2017,07,18,07,42,13.60
2017,07,18,07,43,13.60
2017,07,18,07,44,13.70
2017,07,18,07,45,13.80
2017,07,18,07,46,13.80
2017,07,18,07,47,13.80
2017,07,18,07,48,13.90
2017,07,18,07,49,14.00
2017,07,18,07,50,14.00
2017,07,18,07,51,14.10
2017,07,18,07,52,14.20
2017,07,18,07,53,14.20
2017,07,18,07,54,14.30
2017,07,18,07,55,14.30
2017,07,18,07,56,14.30
2017,07,18,07,57,14.40
2017,07,18,07,58,14.50
2017,07,18,07,59,14.50
2017,07,18,08,00,14.60
2017,07,18,08,01,14.60
2017,07,18,08,02,14.70
2017,07,18,08,03,14.70
2017,07,18,08,04,14.80
2017,07,18,08,05,14.80
2017,07,18,08,06,14.90
2017,07,18,08,07,14.90
2017,07,18,08,08,15.00
2017,07,18,08,09,15.00
2017,07,18,08,10,15.10
2017,07,18,08,11,15.20
2017,07,18,08,12,15.20
2017,07,18,08,13,15.30
2017,07,18,08,14,15.30
2017,07,18,08,15,15.40
2017,07,18,08,16,15.40
2017,07,18,08,17,15.50
2017,07,18,08,18,15.60
2017,07,18,08,19,15.60
2017,07,18,08,20,15.70
2017,07,18,08,21,15.70
2017,07,18,08,22,15.80
2017,07,18,08,23,15.80
2017,07,18,08,24,15.90
2017,07,18,08,25,15.90
2017,07,18,08,26,16.00
2017,07,18,08,27,16.10
2017,07,18,08,28,16.10
2017,07,18,08,29,16.20
2017,07,18,08,30,16.20
2017,07,18,08,31,16.30
2017,07,18,08,32,16.30
2017,07,18,08,33,16.40
2017,07,18,08,34,16.50
2017,07,18,08,35,16.50
2017,07,18,08,36,16.60
2017,07,18,08,37,16.60
2017,07,18,08,38,16.70
2017,07,18,08,39,16.80
2017,07,18,08,40,16.80
2017,07,18,08,41,16.90
2017,07,18,08,42,16.90
2017,07,18,08,43,17.00
2017,07,18,08,44,17.00
2017,07,18,08,45,17.10
2017,07,18,08,46,17.10
2017,07,18,08,47,17.20
2017,07,18,08,48,17.20
2017,07,18,08,49,17.20
2017,07,18,08,50,17.30
2017,07,18,08,51,17.30
2017,07,18,08,52,17.30
2017,07,18,08,53,17.40
2017,07,18,08,54,17.40
2017,07,18,08,55,17.50
2017,07,18,08,56,17.50
2017,07,18,08,57,17.50
2017,07,18,08,58,17.60
2017,07,18,08,59,17.60
2017,07,18,09,00,17.70
2017,07,18,09,01,17.70
2017,07,18,09,02,17.70
2017,07,18,09,03,17.80
2017,07,18,09,04,17.80
2017,07,18,09,05,17.80
2017,07,18,09,06,17.90
2017,07,18,09,07,17.90
2017,07,18,09,08,17.90
2017,07,18,09,09,17.90
2017,07,18,09,10,18.00
2017,07,18,09,11,18.00
2017,07,18,09,12,18.00
2017,07,18,09,13,18.00
2017,07,18,09,14,18.10
2017,07,18,09,15,18.10
2017,07,18,09,16,18.10
2017,07,18,09,17,18.10
2017,07,18,09,18,18.20
2017,07,18,09,19,18.20
2017,07,18,09,20,18.20
2017,07,18,09,21,18.20
2017,07,18,09,22,18.30
2017,07,18,09,23,18.30
2017,07,18,09,24,18.30
2017,07,18,09,25,18.40
2017,07,18,09,26,18.40
2017,07,18,09,27,18.40
2017,07,18,09,28,18.50
2017,07,18,09,29,18.50
2017,07,18,09,30,18.60
2017,07,18,09,31,18.60
2017,07,18,09,32,18.60
2017,07,18,09,33,18.70
2017,07,18,09,34,18.70
2017,07,18,09,35,18.70
2017,07,18,09,36,18.80
2017,07,18,09,37,18.80
2017,07,18,09,38,18.80
2017,07,18,09,39,18.90
2017,07,18,09,40,18.90
2017,07,18,09,41,19.00
2017,07,18,09,42,19.00
2017,07,18,09,43,19.10
2017,07,18,09,44,19.10
2017,07,18,09,45,19.10
2017,07,18,09,46,19.20
2017,07,18,09,47,19.20
2017,07,18,09,48,19.30
2017,07,18,09,49,19.30
2017,07,18,09,50,19.40
2017,07,18,09,51,19.40
2017,07,18,09,52,19.40
2017,07,18,09,53,19.40
2017,07,18,09,54,19.50
2017,07,18,09,55,19.50
2017,07,18,09,56,19.60
2017,07,18,09,57,19.60
2017,07,18,09,58,19.70
2017,07,18,09,59,19.70
2017,07,18,10,00,19.80
2017,07,18,10,01,19.80
2017,07,18,10,02,19.90
2017,07,18,10,03,19.90
2017,07,18,10,04,20.00
2017,07,18,10,05,20.00
2017,07,18,10,06,20.10
2017,07,18,10,07,20.10
2017,07,18,10,08,20.20
2017,07,18,10,09,20.30
2017,07,18,10,10,20.30
2017,07,18,10,11,20.40
2017,07,18,10,12,20.50
2017,07,18,10,13,20.60
2017,07,18,10,14,20.70
2017,07,18,10,15,20.80
2017,07,18,10,16,20.90
2017,07,18,10,17,21.00
2017,07,18,10,18,21.10
2017,07,18,10,19,21.20
2017,07,18,10,20,21.30
2017,07,18,10,21,21.40
2017,07,18,10,22,21.50
2017,07,18,10,23,21.60
2017,07,18,10,24,21.70
2017,07,18,10,25,21.70
2017,07,18,10,26,21.80
2017,07,18,10,27,21.80
2017,07,18,10,28,21.90
2017,07,18,10,29,22.00
2017,07,18,10,30,22.00
2017,07,18,10,31,22.10
2017,07,18,10,32,22.10
2017,07,18,10,33,22.20
2017,07,18,10,34,22.20
2017,07,18,10,35,22.20
2017,07,18,10,36,22.30
2017,07,18,10,37,22.30
2017,07,18,10,38,22.30
2017,07,18,10,39,22.40
2017,07,18,10,40,22.40
2017,07,18,10,41,22.40
2017,07,18,10,42,22.40
2017,07,18,10,43,22.40
2017,07,18,10,44,22.40
2017,07,18,10,45,22.40
2017,07,18,10,46,22.40
2017,07,18,10,47,22.40
2017,07,18,10,48,22.50
2017,07,18,10,49,22.50
2017,07,18,10,50,22.50
2017,07,18,10,51,22.50
2017,07,18,10,52,22.50
2017,07,18,10,53,22.60
2017,07,18,10,54,22.60
2017,07,18,10,55,22.60
2017,07,18,10,56,22.70
2017,07,18,10,57,22.70
2017,07,18,10,58,22.70
2017,07,18,10,59,22.80
2017,07,18,11,00,22.80
2017,07,18,11,01,22.90
2017,07,18,11,02,22.90
2017,07,18,11,03,22.90
2017,07,18,11,04,23.00
2017,07,18,11,05,23.00
2017,07,18,11,06,23.00
2017,07,18,11,07,23.10
2017,07,18,11,08,23.10
2017,07,18,11,09,23.20
2017,07,18,11,10,23.20
2017,07,18,11,11,23.20
2017,07,18,11,12,23.20
2017,07,18,11,13,23.20
2017,07,18,11,14,23.20
2017,07,18,11,15,23.20
2017,07,18,11,16,23.20
2017,07,18,11,17,23.20
2017,07,18,11,18,23.20
2017,07,18,11,19,23.20
2017,07,18,11,20,23.20
2017,07,18,11,21,23.20
2017,07,18,11,22,23.30
2017,07,18,11,23,23.30
2017,07,18,11,24,23.30
2017,07,18,11,25,23.30
2017,07,18,11,26,23.30
2017,07,18,11,27,23.30
2017,07,18,11,28,23.30
2017,07,18,11,29,23.30
2017,07,18,11,30,23.30
2017,07,18,11,31,23.30
2017,07,18,11,32,23.30
2017,07,18,11,33,23.30
2017,07,18,11,34,23.30
2017,07,18,11,35,23.30
2017,07,18,11,36,23.30
2017,07,18,11,37,23.30
2017,07,18,11,38,23.30
2017,07,18,11,39,23.30
2017,07,18,11,40,23.20
2017,07,18,11,41,23.30
2017,07,18,11,42,23.30
2017,07,18,11,43,23.30
2017,07,18,11,44,23.30
2017,07,18,11,45,23.30
2017,07,18,11,46,23.30
2017,07,18,11,47,23.30
2017,07,18,11,48,23.30
2017,07,18,11,49,23.40
2017,07,18,11,50,23.40
2017,07,18,11,51,23.40
2017,07,18,11,52,23.40
2017,07,18,11,53,23.40
2017,07,18,11,54,23.40
2017,07,18,11,55,23.40
2017,07,18,11,56,23.40
2017,07,18,11,57,23.40
2017,07,18,11,58,23.40
2017,07,18,11,59,23.40
2017,07,18,12,00,23.40
2017,07,18,12,01,23.40
2017,07,18,12,02,23.50
2017,07,18,12,03,23.50
2017,07,18,12,04,23.60
2017,07,18,12,05,23.60
2017,07,18,12,06,23.60
2017,07,18,12,07,23.60
2017,07,18,12,08,23.70
2017,07,18,12,09,23.70
2017,07,18,12,10,23.80
2017,07,18,12,11,23.80
2017,07,18,12,12,23.90
2017,07,18,12,13,23.90
2017,07,18,12,14,24.00
2017,07,18,12,15,24.00
2017,07,18,12,16,24.10
2017,07,18,12,17,24.10
2017,07,18,12,18,24.10
2017,07,18,12,19,24.10
2017,07,18,12,20,24.10
2017,07,18,12,21,24.20
2017,07,18,12,22,24.20
2017,07,18,12,23,24.20
2017,07,18,12,24,24.20
2017,07,18,12,25,24.20
2017,07,18,12,26,24.20
2017,07,18,12,27,24.20
2017,07,18,12,28,24.20
2017,07,18,12,29,24.20
2017,07,18,12,30,24.20
2017,07,18,12,31,24.20
2017,07,18,12,32,24.20
2017,07,18,12,33,24.20
2017,07,18,12,34,24.20
2017,07,18,12,35,24.30
2017,07,18,12,36,24.30
2017,07,18,12,37,24.40
2017,07,18,12,38,24.40
2017,07,18,12,39,24.40
2017,07,18,12,40,24.40
2017,07,18,12,41,24.50
2017,07,18,12,42,24.50
2017,07,18,12,43,24.50
2017,07,18,12,44,24.50
2017,07,18,12,45,24.50
2017,07,18,12,46,24.50
2017,07,18,12,47,24.50
2017,07,18,12,48,24.50
2017,07,18,12,49,24.40
2017,07,18,12,50,24.40
2017,07,18,12,51,24.40
2017,07,18,12,52,24.50
2017,07,18,12,53,24.50
2017,07,18,12,54,24.60
2017,07,18,12,55,24.60
2017,07,18,12,56,24.70
2017,07,18,12,57,24.70
2017,07,18,12,58,24.80
2017,07,18,12,59,24.80
2017,07,18,13,00,24.90
2017,07,18,13,01,24.90
2017,07,18,13,02,25.00
2017,07,18,13,03,25.00
2017,07,18,13,04,25.00
2017,07,18,13,05,25.00
2017,07,18,13,06,25.00
2017,07,18,13,07,25.00
2017,07,18,13,08,25.00
2017,07,18,13,09,24.90
2017,07,18,13,10,24.90
2017,07,18,13,11,24.90
2017,07,18,13,12,24.90
2017,07,18,13,13,25.00
2017,07,18,13,14,25.00
2017,07,18,13,15,25.00
2017,07,18,13,16,25.00
2017,07,18,13,17,25.00
2017,07,18,13,18,25.00
2017,07,18,13,19,25.00
2017,07,18,13,20,25.00
2017,07,18,13,21,25.10
2017,07,18,13,22,25.10
2017,07,18,13,23,25.10
2017,07,18,13,24,25.10
2017,07,18,13,25,25.10
2017,07,18,13,26,25.10
2017,07,18,13,27,25.10
2017,07,18,13,28,25.10
2017,07,18,13,29,25.10
2017,07,18,13,30,25.10
2017,07,18,13,31,25.10
2017,07,18,13,32,25.10
2017,07,18,13,33,25.20
2017,07,18,13,34,25.20
2017,07,18,13,35,25.20
2017,07,18,13,36,25.30
2017,07,18,13,37,25.30
2017,07,18,13,38,25.30
2017,07,18,13,39,25.40
2017,07,18,13,40,25.50
2017,07,18,13,41,25.50
2017,07,18,13,42,25.60
2017,07,18,13,43,25.70
2017,07,18,13,44,25.80
2017,07,18,13,45,25.80
2017,07,18,13,46,25.80
2017,07,18,13,47,25.80
2017,07,18,13,48,25.80
2017,07,18,13,49,25.80
2017,07,18,13,50,25.80
2017,07,18,13,51,25.80
2017,07,18,13,52,25.80
2017,07,18,13,53,25.80
2017,07,18,13,54,25.70
2017,07,18,13,55,25.70
2017,07,18,13,56,25.70
2017,07,18,13,57,25.70
2017,07,18,13,58,25.70
2017,07,18,13,59,25.80
2017,07,18,14,00,25.80
2017,07,18,14,01,25.80
2017,07,18,14,02,25.80
2017,07,18,14,03,25.80
2017,07,18,14,04,25.80
2017,07,18,14,05,25.80
2017,07,18,14,06,25.80
2017,07,18,14,07,25.80
2017,07,18,14,08,25.90
2017,07,18,14,09,25.90
2017,07,18,14,10,25.90
2017,07,18,14,11,25.80
2017,07,18,14,12,25.80
2017,07,18,14,13,25.80
2017,07,18,14,14,25.80
2017,07,18,14,15,25.90
2017,07,18,14,16,25.90
2017,07,18,14,17,25.90
2017,07,18,14,18,25.90
2017,07,18,14,19,25.90
2017,07,18,14,20,25.90
2017,07,18,14,21,25.90
2017,07,18,14,22,25.90
2017,07,18,14,23,25.90
2017,07,18,14,24,25.90
2017,07,18,14,25,25.90
2017,07,18,14,26,25.90
2017,07,18,14,27,25.90
2017,07,18,14,28,25.90
2017,07,18,14,29,25.90
2017,07,18,14,30,26.00
2017,07,18,14,31,26.00
2017,07,18,14,32,26.00
2017,07,18,14,33,26.10
2017,07,18,14,34,26.10
2017,07,18,14,35,26.10
2017,07,18,14,36,26.20
2017,07,18,14,37,26.20
2017,07,18,14,38,26.20
2017,07,18,14,39,26.20
2017,07,18,14,40,26.30
2017,07,18,14,41,26.40
2017,07,18,14,42,26.40
2017,07,18,14,43,26.50
2017,07,18,14,44,26.50
2017,07,18,14,45,26.60
2017,07,18,14,46,26.60
2017,07,18,14,47,26.70
2017,07,18,14,48,26.70
2017,07,18,14,49,26.70
2017,07,18,14,50,26.70
2017,07,18,14,51,26.70
2017,07,18,14,52,26.70
2017,07,18,14,53,26.70
2017,07,18,14,54,26.80
2017,07,18,14,55,26.80
2017,07,18,14,56,26.80
2017,07,18,14,57,26.90
2017,07,18,14,58,26.90
2017,07,18,14,59,26.90
2017,07,18,15,00,27.00
2017,07,18,15,01,27.00
2017,07,18,15,02,27.00
2017,07,18,15,03,27.00
2017,07,18,15,04,27.10
2017,07,18,15,05,27.10
2017,07,18,15,06,27.10
2017,07,18,15,07,27.10
2017,07,18,15,08,27.10
2017,07,18,15,09,27.10
2017,07,18,15,10,27.10
2017,07,18,15,11,27.10
2017,07,18,15,12,27.10
2017,07,18,15,13,27.10
2017,07,18,15,14,27.10
2017,07,18,15,15,27.10
2017,07,18,15,16,27.10
2017,07,18,15,17,27.20
2017,07,18,15,18,27.20
2017,07,18,15,19,27.20
2017,07,18,15,20,27.20
2017,07,18,15,21,27.30
2017,07,18,15,22,27.30
2017,07,18,15,23,27.30
2017,07,18,15,24,27.40
2017,07,18,15,25,27.40
2017,07,18,15,26,27.40
2017,07,18,15,27,27.50
2017,07,18,15,28,27.50
2017,07,18,15,29,27.60
2017,07,18,15,30,27.70
2017,07,18,15,31,27.70
2017,07,18,15,32,27.70
2017,07,18,15,33,27.80
2017,07,18,15,34,27.80
2017,07,18,15,35,27.90
2017,07,18,15,36,27.90
2017,07,18,15,37,28.00
2017,07,18,15,38,28.00
2017,07,18,15,39,28.10
2017,07,18,15,40,28.10
2017,07,18,15,41,28.10
2017,07,18,15,42,28.10
2017,07,18,15,43,28.10
2017,07,18,15,44,28.20
2017,07,18,15,45,28.20
2017,07,18,15,46,28.20
2017,07,18,15,47,28.20
2017,07,18,15,48,28.20
2017,07,18,15,49,28.20
2017,07,18,15,50,28.20
2017,07,18,15,51,28.10
2017,07,18,15,52,28.10
2017,07,18,15,53,28.10
2017,07,18,15,54,28.10
2017,07,18,15,55,28.10
2017,07,18,15,56,28.10
2017,07,18,15,57,28.10
2017,07,18,15,58,28.10
2017,07,18,15,59,28.10
2017,07,18,16,00,28.10
2017,07,18,16,01,28.10
2017,07,18,16,02,28.10
2017,07,18,16,03,28.10
2017,07,18,16,04,28.20
2017,07,18,16,05,28.20
2017,07,18,16,06,28.20
2017,07,18,16,07,28.20
2017,07,18,16,08,28.20
2017,07,18,16,09,28.20
2017,07,18,16,10,28.20
2017,07,18,16,11,28.20
2017,07,18,16,12,28.20
2017,07,18,16,13,28.10
2017,07,18,16,14,28.10
2017,07,18,16,15,28.00
2017,07,18,16,16,27.90
2017,07,18,16,17,27.80
2017,07,18,16,18,27.80
2017,07,18,16,19,27.80
2017,07,18,16,20,27.70
2017,07,18,16,21,27.70
2017,07,18,16,22,27.70
2017,07,18,16,23,27.70
2017,07,18,16,24,27.70
2017,07,18,16,25,27.70
2017,07,18,16,26,27.70
2017,07,18,16,27,27.80
2017,07,18,16,28,27.80
2017,07,18,16,29,27.80
2017,07,18,16,30,27.80
2017,07,18,16,31,27.80
2017,07,18,16,32,27.80
2017,07,18,16,33,27.80
2017,07,18,16,34,27.80
2017,07,18,16,35,27.70
2017,07,18,16,36,27.70
2017,07,18,16,37,27.70
2017,07,18,16,38,27.70
2017,07,18,16,39,27.70
2017,07,18,16,40,27.70
2017,07,18,16,41,27.70
2017,07,18,16,42,27.80
2017,07,18,16,43,27.80
2017,07,18,16,44,27.80
2017,07,18,16,45,27.80
2017,07,18,16,46,27.80
2017,07,18,16,47,27.80
2017,07,18,16,48,27.80
2017,07,18,16,49,27.80
2017,07,18,16,50,27.80
2017,07,18,16,51,27.80
2017,07,18,16,52,27.80
2017,07,18,16,53,27.80
2017,07,18,16,54,27.80
2017,07,18,16,55,27.80
2017,07,18,16,56,27.80
2017,07,18,16,57,27.80
2017,07,18,16,58,27.70
2017,07,18,16,59,27.70
2017,07,18,17,00,27.60
2017,07,18,17,01,27.60
2017,07,18,17,02,27.50
2017,07,18,17,03,27.50
2017,07,18,17,04,27.40
2017,07,18,17,05,27.30
2017,07,18,17,06,27.20
2017,07,18,17,07,27.20
2017,07,18,17,08,27.10
2017,07,18,17,09,27.00
2017,07,18,17,10,27.00
2017,07,18,17,11,26.90
2017,07,18,17,12,26.90
2017,07,18,17,13,26.90
2017,07,18,17,14,26.80
2017,07,18,17,15,26.80
2017,07,18,17,16,26.70
2017,07,18,17,17,26.60
2017,07,18,17,18,26.60
2017,07,18,17,19,26.50